TimeCST,TemperatureF,Dew PointF,Humidity,Sea Level PressureIn,VisibilityMPH,Wind Direction,Wind SpeedMPH,Gust SpeedMPH,PrecipitationIn,Events,Conditions,WindDirDegrees,DateUTC
12:56 AM,8.1,6.1,92,30.40,3.0,Calm,Calm,-,N/A,,Clear,0,2013-03-07 06:56:00
1:12 AM,6.8,1.4,79,30.34,2.0,Calm,Calm,-,N/A,,Haze,0,2013-03-07 07:12:00
1:19 AM,8.6,3.2,79,30.35,1.8,Calm,Calm,-,N/A,,Partly Cloudy,0,2013-03-07 07:19:00
1:22 AM,6.8,3.2,85,30.35,4.0,Calm,Calm,-,N/A,,Partly Cloudy,0,2013-03-07 07:22:00
1:52 AM,6.8,3.2,85,30.35,1.8,Calm,Calm,-,N/A,,Clear,0,2013-03-07 07:52:00
1:56 AM,6.1,3.0,87,30.40,1.0,Calm,Calm,-,N/A,,Clear,0,2013-03-07 07:56:00
2:12 AM,6.8,3.2,85,30.34,3.0,Calm,Calm,-,N/A,,Clear,0,2013-03-07 08:12:00
2:19 AM,6.8,3.2,85,30.34,1.8,Calm,Calm,-,N/A,,Clear,0,2013-03-07 08:19:00
2:35 AM,6.8,1.4,79,30.33,3.0,Calm,Calm,-,N/A,,Haze,0,2013-03-07 08:35:00
2:56 AM,3.9,1.0,88,30.39,3.0,Calm,Calm,-,N/A,,Clear,0,2013-03-07 08:56:00
3:33 AM,3.2,1.4,92,30.35,1.5,Calm,Calm,-,N/A,,Clear,0,2013-03-07 09:33:00
3:41 AM,3.2,-0.4,85,30.35,0.5,Calm,Calm,-,N/A,Fog,Light Freezing Fog,0,2013-03-07 09:41:00
3:56 AM,3.9,-0.0,84,30.40,0.5,Calm,Calm,-,N/A,Fog,Light Freezing Fog,0,2013-03-07 09:56:00
4:14 AM,3.2,1.4,92,30.35,0.2,Calm,Calm,-,N/A,Fog,Light Freezing Fog,0,2013-03-07 10:14:00
4:24 AM,1.4,-2.2,85,30.35,1.2,NE,3.5,-,N/A,,Scattered Clouds,50,2013-03-07 10:24:00
4:26 AM,1.4,-2.2,85,30.35,3.0,ENE,3.5,-,N/A,,Scattered Clouds,60,2013-03-07 10:26:00
4:56 AM,1.9,-2.9,80,30.41,10.0,Calm,Calm,-,N/A,,Clear,0,2013-03-07 10:56:00
5:29 AM,1.4,-4.0,78,30.36,8.0,Calm,Calm,-,N/A,,Partly Cloudy,0,2013-03-07 11:29:00
5:56 AM,-0.0,-4.0,83,30.43,10.0,Calm,Calm,-,N/A,,Clear,0,2013-03-07 11:56:00
6:05 AM,1.4,-4.0,78,30.37,9.0,Calm,Calm,-,N/A,,Scattered Clouds,0,2013-03-07 12:05:00
6:56 AM,1.0,-4.0,79,30.44,9.0,Calm,Calm,-,N/A,,Clear,0,2013-03-07 12:56:00
7:56 AM,8.1,3.9,83,30.45,7.0,NNE,3.5,-,N/A,,Clear,30,2013-03-07 13:56:00
8:56 AM,10.9,10.0,96,30.44,8.0,Calm,Calm,-,N/A,,Clear,0,2013-03-07 14:56:00
9:56 AM,17.1,12.9,84,30.45,10.0,Calm,Calm,-,N/A,,Clear,0,2013-03-07 15:56:00
10:56 AM,26.1,14.0,60,30.43,10.0,ENE,4.6,-,0.02,,Clear,70,2013-03-07 16:56:00
11:56 AM,30.0,12.0,47,30.43,10.0,Calm,Calm,-,N/A,,Clear,0,2013-03-07 17:56:00
12:56 PM,32.0,12.0,44,30.41,9.0,Calm,Calm,-,0.00,,Clear,0,2013-03-07 18:56:00
2:56 PM,34.0,12.0,40,30.39,10.0,Calm,Calm,-,0.00,,Clear,0,2013-03-07 20:56:00
3:56 PM,34.0,12.0,40,30.38,10.0,Calm,Calm,-,N/A,,Clear,0,2013-03-07 21:56:00
4:56 PM,30.9,14.0,50,30.38,10.0,SSE,4.6,-,N/A,,Clear,160,2013-03-07 22:56:00
5:56 PM,27.0,12.9,56,30.39,10.0,East,6.9,-,N/A,,Clear,80,2013-03-07 23:56:00
6:56 PM,24.1,12.0,60,30.40,10.0,ENE,5.8,-,N/A,,Clear,70,2013-03-08 00:56:00
7:56 PM,28.0,12.9,53,30.37,10.0,ESE,10.4,-,N/A,,Clear,120,2013-03-08 01:56:00
8:56 PM,25.0,12.0,58,30.38,10.0,ESE,8.1,-,N/A,,Clear,110,2013-03-08 02:56:00
9:56 PM,25.0,12.0,58,30.37,10.0,ESE,8.1,-,N/A,,Clear,110,2013-03-08 03:56:00
10:56 PM,24.1,12.0,60,30.37,10.0,ESE,8.1,-,N/A,,Clear,120,2013-03-08 04:56:00
11:56 PM,24.1,12.0,60,30.38,10.0,SE,6.9,-,N/A,,Clear,130,2013-03-08 05:56:00